• In France
  • List of Countries
  • For 7 days
  • Water Temperature
  • Satellite Maps
  • Weather Map
  • Weather Widgets
  • user-avatar
    Login

    Hourly Weather Zdzenice

    Today, 18 August, Saturday

    Time Temperature Precipitation Wind Pressure Humidity
    00:00 +21°C° 0 mm 3 mps 748 mmHg 71%
    01:00 +20°C° 0 mm 2 mps 748 mmHg 74%
    02:00 +20°C° 0 mm 2 mps 748 mmHg 76%
    03:00 +20°C° 0 mm 2 mps 748 mmHg 78%
    04:00 +19°C° 0 mm 2 mps 748 mmHg 80%
    05:00 +20°C° 0 mm 2 mps 749 mmHg 76%
    06:00 +22°C° 0 mm 1 mps 749 mmHg 73%
    07:00 +23°C° 0 mm 1 mps 749 mmHg 69%
    08:00 +25°C° 0 mm 1 mps 749 mmHg 64%
    09:00 +26°C° 0 mm 1 mps 750 mmHg 59%
    10:00 +28°C° 0 mm 1 mps 750 mmHg 54%
    11:00 +29°C° 0 mm 1 mps 750 mmHg 50%
    12:00 +30°C° 0 mm 1 mps 750 mmHg 46%
    13:00 +31°C° 0 mm 2 mps 750 mmHg 42%
    14:00 +31°C° 0 mm 2 mps 750 mmHg 42%
    15:00 +31°C° 0 mm 2 mps 750 mmHg 42%
    16:00 +31°C° 0 mm 3 mps 750 mmHg 42%
    17:00 +29°C° 0 mm 3 mps 750 mmHg 47%
    18:00 +28°C° 0 mm 2 mps 750 mmHg 53%
    19:00 +26°C° 0 mm 2 mps 750 mmHg 58%
    20:00 +25°C° 0.4 mm 3 mps 750 mmHg 62%
    21:00 +24°C° 0.4 mm 3 mps 751 mmHg 67%
    22:00 +21°C° 0.4 mm 3 mps 751 mmHg 71%
    23:00 +21°C° 0.1 mm 2 mps 751 mmHg 74%

    Tomorrow, 19 August, Sunday

    Time Temperature Precipitation Wind Pressure Humidity
    00:00 +20°C° 0.1 mm 2 mps 751 mmHg 76%
    01:00 +19°C° 0.1 mm 2 mps 751 mmHg 79%
    02:00 +19°C° 0 mm 2 mps 751 mmHg 82%
    03:00 +19°C° 0 mm 2 mps 751 mmHg 84%
    04:00 +19°C° 0 mm 1 mps 751 mmHg 87%
    05:00 +20°C° 0 mm 1 mps 751 mmHg 83%
    06:00 +21°C° 0 mm 1 mps 752 mmHg 79%
    07:00 +20°C° 0 mm 0 mps 752 mmHg 75%
    08:00 +24°C° 0 mm 1 mps 752 mmHg 65%
    09:00 +25°C° 0 mm 1 mps 752 mmHg 56%
    10:00 +27°C° 0 mm 2 mps 752 mmHg 46%
    11:00 +28°C° 0 mm 2 mps 752 mmHg 44%
    12:00 +28°C° 0 mm 2 mps 751 mmHg 41%
    13:00 +29°C° 0 mm 2 mps 751 mmHg 39%
    14:00 +29°C° 0 mm 2 mps 751 mmHg 39%
    15:00 +29°C° 0 mm 2 mps 751 mmHg 39%
    16:00 +29°C° 0 mm 2 mps 750 mmHg 39%
    17:00 +28°C° 0 mm 2 mps 750 mmHg 42%
    18:00 +27°C° 0 mm 1 mps 750 mmHg 45%
    19:00 +26°C° 0 mm 1 mps 750 mmHg 49%
    20:00 +25°C° 0 mm 1 mps 750 mmHg 51%
    21:00 +22°C° 0 mm 0 mps 750 mmHg 53%
    22:00 +21°C° 0 mm 0 mps 750 mmHg 54%
    23:00 +21°C° 0 mm 0 mps 750 mmHg 56%

    Day after tomorrow, 20 August, Monday

    Time Temperature Precipitation Wind Pressure Humidity
    00:00 +22°C° 0 mm 1 mps 750 mmHg 58%
    01:00 +22°C° 0 mm 1 mps 749 mmHg 59%
    02:00 +22°C° 0 mm 1 mps 749 mmHg 62%
    03:00 +22°C° 0 mm 1 mps 749 mmHg 64%
    04:00 +20°C° 0 mm 2 mps 749 mmHg 66%
    05:00 +21°C° 0 mm 2 mps 749 mmHg 65%
    06:00 +23°C° 0 mm 2 mps 749 mmHg 64%
    07:00 +24°C° 0 mm 2 mps 749 mmHg 63%
    08:00 +26°C° 0 mm 2 mps 749 mmHg 59%
    09:00 +27°C° 0 mm 3 mps 748 mmHg 54%
    10:00 +29°C° 0 mm 3 mps 748 mmHg 50%
    11:00 +29°C° 0 mm 3 mps 748 mmHg 47%
    12:00 +30°C° 0 mm 3 mps 747 mmHg 45%
    13:00 +32°C° 0 mm 4 mps 747 mmHg 42%
    14:00 +32°C° 0 mm 4 mps 747 mmHg 42%
    15:00 +32°C° 0 mm 4 mps 746 mmHg 41%
    16:00 +32°C° 0 mm 4 mps 746 mmHg 41%
    17:00 +29°C° 0 mm 3 mps 746 mmHg 44%
    18:00 +28°C° 0 mm 3 mps 746 mmHg 48%
    19:00 +27°C° 0 mm 3 mps 746 mmHg 51%
    20:00 +26°C° 0 mm 3 mps 746 mmHg 54%
    21:00 +25°C° 0 mm 3 mps 747 mmHg 57%
    22:00 +24°C° 0 mm 3 mps 747 mmHg 60%
    23:00 +22°C° 0 mm 3 mps 747 mmHg 64%

    21 August, Tuesday

    Time Temperature Precipitation Wind Pressure Humidity
    00:00 +21°C° 0 mm 3 mps 747 mmHg 68%
    01:00 +20°C° 0 mm 3 mps 747 mmHg 72%
    02:00 +20°C° 0 mm 3 mps 747 mmHg 76%
    03:00 +19°C° 0 mm 3 mps 748 mmHg 79%
    04:00 +19°C° 0 mm 3 mps 748 mmHg 82%
    05:00 +19°C° 0 mm 4 mps 748 mmHg 79%
    06:00 +19°C° 0 mm 4 mps 749 mmHg 76%
    07:00 +20°C° 0 mm 5 mps 749 mmHg 73%
    08:00 +21°C° 0 mm 5 mps 749 mmHg 66%
    09:00 +22°C° 0 mm 5 mps 750 mmHg 58%
    10:00 +22°C° 0 mm 5 mps 750 mmHg 51%
    11:00 +23°C° 0 mm 5 mps 750 mmHg 47%
    12:00 +25°C° 0 mm 5 mps 750 mmHg 44%
    13:00 +25°C° 0 mm 5 mps 750 mmHg 40%
    14:00 +25°C° 0 mm 5 mps 750 mmHg 40%
    15:00 +25°C° 0 mm 5 mps 750 mmHg 39%
    16:00 +25°C° 0 mm 5 mps 750 mmHg 38%
    17:00 +23°C° 0 mm 4 mps 750 mmHg 43%
    18:00 +21°C° 0 mm 3 mps 750 mmHg 48%
    19:00 +20°C° 0 mm 2 mps 751 mmHg 52%
    20:00 +19°C° 0 mm 2 mps 751 mmHg 55%
    21:00 +18°C° 0 mm 2 mps 752 mmHg 59%
    22:00 +18°C° 0 mm 2 mps 752 mmHg 62%
    23:00 +17°C° 0 mm 2 mps 752 mmHg 66%

    22 August, Wednesday

    Time Temperature Precipitation Wind Pressure Humidity
    00:00 +16°C° 0 mm 2 mps 752 mmHg 70%
    01:00 +16°C° 0 mm 1 mps 752 mmHg 75%
    02:00 +15°C° 0 mm 1 mps 752 mmHg 77%
    03:00 +15°C° 0 mm 1 mps 752 mmHg 80%
    04:00 +15°C° 0 mm 1 mps 752 mmHg 83%
    05:00 +16°C° 0 mm 1 mps 753 mmHg 79%
    06:00 +18°C° 0 mm 1 mps 753 mmHg 74%
    07:00 +19°C° 0 mm 1 mps 753 mmHg 70%
    08:00 +21°C° 0 mm 1 mps 753 mmHg 63%
    09:00 +22°C° 0 mm 1 mps 753 mmHg 56%
    10:00 +24°C° 0 mm 1 mps 753 mmHg 50%
    11:00 +25°C° 0 mm 1 mps 753 mmHg 45%
    12:00 +26°C° 0 mm 1 mps 752 mmHg 41%
    13:00 +27°C° 0 mm 1 mps 752 mmHg 37%
    14:00 +27°C° 0 mm 1 mps 752 mmHg 36%
    15:00 +27°C° 0 mm 1 mps 751 mmHg 35%
    16:00 +26°C° 0 mm 0 mps 751 mmHg 34%
    17:00 +26°C° 0 mm 1 mps 751 mmHg 37%
    18:00 +24°C° 0 mm 1 mps 751 mmHg 41%
    19:00 +23°C° 0 mm 1 mps 751 mmHg 45%
    20:00 +22°C° 0 mm 1 mps 751 mmHg 47%
    21:00 +21°C° 0 mm 1 mps 751 mmHg 50%
    22:00 +20°C° 0 mm 2 mps 751 mmHg 53%
    23:00 +19°C° 0 mm 2 mps 751 mmHg 55%

    23 August, Thursday

    Time Temperature Precipitation Wind Pressure Humidity
    00:00 +19°C° 0 mm 2 mps 751 mmHg 58%
    01:00 +18°C° 0 mm 2 mps 751 mmHg 61%
    02:00 +18°C° 0 mm 2 mps 751 mmHg 63%
    03:00 +18°C° 0 mm 2 mps 751 mmHg 65%
    04:00 +17°C° 0 mm 2 mps 750 mmHg 67%
    05:00 +18°C° 0 mm 2 mps 751 mmHg 66%
    06:00 +19°C° 0 mm 2 mps 751 mmHg 64%
    07:00 +21°C° 0 mm 2 mps 751 mmHg 62%
    08:00 +23°C° 0 mm 2 mps 751 mmHg 56%
    09:00 +25°C° 0 mm 2 mps 750 mmHg 50%
    10:00 +27°C° 0 mm 2 mps 750 mmHg 44%
    11:00 +28°C° 0 mm 2 mps 750 mmHg 42%
    12:00 +29°C° 0 mm 2 mps 750 mmHg 39%
    13:00 +29°C° 0 mm 2 mps 749 mmHg 36%
    14:00 +30°C° 0 mm 2 mps 749 mmHg 36%
    15:00 +30°C° 0 mm 2 mps 749 mmHg 36%
    16:00 +30°C° 0 mm 2 mps 749 mmHg 36%
    17:00 +28°C° 0 mm 2 mps 748 mmHg 40%
    18:00 +27°C° 0 mm 2 mps 748 mmHg 43%
    19:00 +25°C° 0 mm 2 mps 748 mmHg 47%
    20:00 +25°C° 0 mm 2 mps 748 mmHg 50%
    21:00 +24°C° 0 mm 3 mps 748 mmHg 52%
    22:00 +22°C° 0 mm 3 mps 748 mmHg 54%
    23:00 +21°C° 0 mm 3 mps 748 mmHg 58%
    Show more